Weather Roundup
Issued by NWS Chicago, IL

Home | Current Version | Previous Version | Graphics & Text | Print | Product List | Glossary On
Versions: 1 2 3 4 5 6 7 8 9 10 11 12 13 14 15 16 17 18 19 20 21 22 23 24 25 26 27 28 29 30 31 32 33 34 35 36 37 38 39 40 41 42 43 44 45 46 47 48 49 50
000
NZUS59 KLOT 232106
HRRLOT

CHICAGO AREA WEATHER ROUNDUP
NATIONAL WEATHER SERVICE CHICAGO/ROMEOVILLE IL
400 PM CDT WED APR 23 2014

NOTE: "FAIR" INDICATES FEW OR NO CLOUDS BELOW 12,000 FEET WITH NO
SIGNIFICANT WEATHER AND/OR OBSTRUCTIONS TO VISIBILITY.

* THESE STATIONS ARE NOT UNDER NWS QUALITY CONTROL. THEY ALSO MAY NOT
  REPORT WEATHER SUCH AS PRECIPITATION OR FOG.

ILZ005-006-012>014-019>023-232200-
NORTHEAST ILLINOIS

CITY           SKY/WX    TMP DP  RH WIND       PRES   REMARKS
OHARE          PTSUNNY   49  23  36 NE9G18    30.12F
MIDWAY         PTSUNNY   50  28  42 NE10      30.13F
AURORA         MOSUNNY   56  26  31 NE7       30.11F
LANSING*       SUNNY     46  28  48 NE10      30.13F
JOLIET*        SUNNY     54  26  34 NE9       30.11S
WAUKEGAN       MOSUNNY   44  20  38 NE9       30.13F
DUPAGE AIRPORT MOSUNNY   52  24  33 E10       30.11F
WHEELING       SUNNY     47  24  40 NE12      30.14F
KANKAKEE*      SUNNY     55  31  40 NE6       30.09F
MORRIS*        MOSUNNY   58  21  24 E8        30.09F
LEWIS AIRPORT* SUNNY     53  26  35 E10       30.10F
NORTHERLY IS     N/A     43  32  65 N12         N/A
$$

WIZ051-052-058>065-066-070>072-232200-
SOUTHEAST WISCONSIN

CITY           SKY/WX    TMP DP  RH WIND       PRES   REMARKS
MILWAUKEE      PTSUNNY   42  24  49 E8        30.16F
KENOSHA*       MOSUNNY   47  23  38 E10       30.14F
RACINE*        MOSUNNY   44  24  45 NE9       30.17F
BURLINGTON     MOSUNNY   49  25  38 E9        30.12F
WAUKESHA       PTSUNNY   46  18  31 E9        30.14F
WEST BEND      CLOUDY    46  21  36 E10       30.14F
$$

INZ001>003-010>013-019-020-232200-
NORTHWEST INDIANA

CITY           SKY/WX    TMP DP  RH WIND       PRES   REMARKS
GARY*          MOSUNNY   45  32  61 NE16      30.15F
MICHIGAN CITY* NOT AVBL
RENSSELAER*    NOT AVBL
VALPARAISO     SUNNY     50  30  46 NE9       30.11F
$$

LMZ740>746-232200-
SOUTHERN LAKE MICHIGAN

STATION/POSITION TIME  SKY/WX   TEMP WIND        PRES    VSBY
                                AIR  DIR/SP/G
                 (UTC)          (F)  (DEG/KT/KT) (MB)    (MI)
HARRISON CRIB    2100            37   10/ 12/ 14   N/A
BURNHAM HARBOR   2100            42   20/ 13       N/A
CALUMET HARBOR   2100            41   20/ 11/ 14 1021.4F
BURNS HARBOR     NOT AVBL
MICHIGAN CITY    2100            37   10/ 12/ 14   N/A
$$

ABBREVIATIONS USED IN REMARKS
   TC - TEMPERATURE IN CELSIUS
  WCI - WIND CHILL INDEX
   HX - HEAT INDEX
  VSB - VISIBILITY
$$



USA.gov is the U.S. government's official web portal to all federal, state and local government web resources and services.